[[{"header":{"parameterUnit":"m.s-1","parameterCategory":1,"la1":30.2991,"la2":30.254,"lo1":-89.0895,"lo2":-89.0444,"dy":0.0017,"dx":0.0017,"nx":28,"ny":28,"refTime":"2025-04-15T03:00:00:Z","depth":0,"parameterNumber":2,"parameterNumberName":"U-component_of_WINDS"},"data":[0,0,0,0,0,0,0,0,0,0,0,0,0,0,0,0,0,0,0,0,0,0,0,0,0,0,0,0,0,0,0,0,0,0,0,0,0,0,0,0,0,0,0,0,0,0,0,0,0,0,0,0,0,0,0,0,0,0,0.5304,0.5304,0,0.5314,0.5315,0.5315,0.5331,0.5331,0.5332,0.5332,0.5341,0.5341,0.5341,0,0,0,0,0,0,0,0,0,0,0,0,0,0.5297,0.5297,0.5304,0.5304,0.5304,0.5314,0.5315,0.5315,0.5331,0.5331,0.5332,0.5332,0.5341,0.5341,0.5341,0,0,0,0,0,0,0,0,0,0,0,0,0,0.5303,0.5297,0.5304,0.5314,0.5315,0.5314,0.5315,0.5315,0.5331,0.5331,0.5332,0.5332,0.5341,0.5341,0.5341,0.5332,0,0,0.5341,0.5341,0,0,0,0,0,0,0,0,0.5303,0.5303,0.5312,0.5313,0.5314,0.5322,0.5316,0.532,0.5331,0.5325,0.5332,0.5332,0.5334,0.5335,0.5336,0.5332,0.5332,0.5341,0.5341,0.5341,0.5341,0,0,0,0,0,0,0,0.5302,0.5303,0.5308,0.5312,0.5313,0.5317,0.5318,0.5317,0.5327,0.5325,0.5326,0.5327,0.5335,0.5336,0.5336,0.5333,0.5341,0.5341,0.5341,0.5341,0.5322,0.5322,0,0,0,0,0,0,0.5301,0.5303,0.5308,0.5308,0.531,0.5317,0.5318,0.5319,0.5327,0.5328,0.5327,0.5328,0.5335,0.5336,0.5336,0.5326,0.5341,0.5341,0.5341,0.5323,0.5322,0.5321,0,0,0,0,0,0,0.5301,0.5301,0.5307,0.5306,0.5307,0.5317,0.5317,0.5319,0.532,0.5328,0.533,0.5326,0.5336,0.5336,0.5333,0.5326,0.5341,0.5341,0.5323,0.5322,0.5322,0.5305,0,0,0,0,0,0,0.53,0.5301,0.5298,0.5306,0.5307,0.5304,0.5317,0.5319,0.532,0.5321,0.5328,0.5329,0.5336,0.5333,0.5333,0.5327,0.5341,0.5324,0.5323,0.5322,0.5306,0.5304,0.5302,0,0,0,0,0,0.53,0.5292,0.5297,0.5298,0.5303,0.5303,0.5304,0.5313,0.5319,0.5316,0.5321,0.5329,0.5327,0.5332,0.5332,0.5326,0.5324,0.5323,0.5322,0.5307,0.5304,0.5302,0,0,0,0,0,0,0.5282,0.5293,0.5299,0.5294,0.5298,0.5306,0.5302,0.5309,0.5311,0.5312,0.5323,0.5324,0.5319,0.5322,0.5328,0.5318,0.5327,0.5326,0.5315,0.5313,0.5311,0.5309,0.5341,0,0,0,0,0,0.5278,0.5278,0.5287,0.5281,0.5283,0.5292,0.5293,0.5299,0.5303,0.5305,0.531,0.5313,0.5314,0.5314,0.5314,0.5307,0.5308,0.5303,0.53,0.5299,0.5297,0.5293,0.5291,0.5318,0.5318,0.5318,0,0,0.5268,0.5274,0.5273,0.5278,0.5282,0.5281,0.5293,0.5292,0.5291,0.5304,0.5301,0.5305,0.531,0.5304,0.5302,0.5307,0.529,0.5297,0.5296,0.5295,0.5292,0.5289,0.5287,0.5317,0.5317,0.5318,0,0,0.525,0.5255,0.5251,0.5255,0.526,0.5267,0.5266,0.5274,0.5277,0.5274,0.5284,0.5283,0.5284,0.5286,0.5288,0.5272,0.5279,0.5272,0.526,0.5256,0.5254,0.5252,0.5246,0.5244,0.5271,0.5271,0.5271,0,0.5238,0.5237,0.5248,0.5246,0.5247,0.526,0.5256,0.5259,0.5264,0.5265,0.527,0.5271,0.5275,0.527,0.5266,0.5267,0.5266,0.5271,0.5254,0.5252,0.525,0.5245,0.5242,0.527,0.527,0.527,0.527,0,0.5221,0.522,0.5216,0.5222,0.5223,0.522,0.523,0.523,0.5236,0.5242,0.5239,0.5244,0.5246,0.5246,0.5252,0.5242,0.5245,0.5252,0.5261,0.5247,0.5241,0.5239,0.5269,0.5269,0.5269,0.5269,0,0,0.5191,0.5203,0.5201,0.5204,0.5212,0.5211,0.5209,0.5212,0.5211,0.5215,0.5212,0.5213,0.522,0.5221,0.5228,0.5225,0.5211,0.5233,0.5233,0.5228,0.52,0.5194,0.5191,0.5217,0.5216,0.5216,0.52,0,0.5174,0.517,0.518,0.5174,0.5173,0.5186,0.5184,0.5188,0.5194,0.5194,0.52,0.52,0.5209,0.521,0.5208,0.5214,0.5206,0.5215,0.5214,0.5214,0.5211,0.5188,0.5182,0.5166,0.5198,0.5197,0.5197,0,0.5153,0.5156,0.515,0.5159,0.5159,0.5157,0.516,0.516,0.5166,0.517,0.5172,0.518,0.5178,0.5188,0.5185,0.5191,0.5191,0.5194,0.5194,0.5193,0.5204,0.5186,0.5161,0.5158,0.5194,0.5194,0.5194,0,0.5131,0.5134,0.513,0.5133,0.5143,0.5141,0.5145,0.5151,0.5152,0.5155,0.5155,0.5158,0.5159,0.5161,0.5169,0.5176,0.5165,0.5175,0.5168,0.5167,0.5164,0.5164,0.5137,0.5165,0.5166,0.5166,0.5166,0,0.511,0.5106,0.5121,0.5118,0.5114,0.5125,0.5121,0.5126,0.5131,0.513,0.5142,0.514,0.5152,0.5152,0.5159,0.5155,0.5155,0.5158,0.516,0.5157,0.5156,0.5156,0.5157,0.5165,0.5165,0.5165,0.5165,0,0.5084,0.5094,0.5091,0.5101,0.5104,0.51,0.5108,0.5107,0.5113,0.5112,0.5112,0.5122,0.5123,0.5132,0.5135,0.5139,0.5132,0.5136,0.513,0.5131,0.5122,0.5123,0.5094,0.5091,0.5122,0.5122,0.5122,0,0.5069,0.5066,0.5076,0.5077,0.5081,0.5081,0.5082,0.5094,0.5095,0.5101,0.5098,0.51,0.5102,0.5102,0.511,0.5111,0.5115,0.5105,0.5115,0.5112,0.5114,0.5114,0.5113,0.5102,0.5102,0.5102,0.5101,0,0.5042,0.5048,0.5049,0.5053,0.5055,0.5058,0.5062,0.5061,0.5074,0.5075,0.5076,0.5077,0.508,0.5081,0.5085,0.5088,0.5097,0.5099,0.5097,0.5093,0.5089,0.509,0.5123,0.5099,0.5099,0.5099,0.5099,0.5099,0.5021,0.5019,0.5026,0.5027,0.5032,0.5036,0.5034,0.5042,0.5043,0.5046,0.5053,0.5053,0.5059,0.5065,0.5068,0.5068,0.5073,0.507,0.5069,0.5068,0.5066,0.509,0.5068,0.5068,0.5069,0.5069,0.5069,0,0.4994,0.4999,0.5001,0.5006,0.5008,0.5017,0.5022,0.5022,0.5022,0.5027,0.5029,0.503,0.5032,0.504,0.5042,0.504,0.5044,0.504,0.504,0.5041,0.5062,0.5063,0.5037,0.5037,0.5037,0.5037,0.5037,0.5037,0.498,0.4976,0.4983,0.4982,0.4988,0.4988,0.499,0.4993,0.4998,0.4999,0.5,0.5006,0.5012,0.5015,0.5017,0.5019,0.5019,0.5014,0.5017,0.5036,0.5039,0.5042,0.5043,0.5014,0.5014,0.4996,0.4996,0.4996]},{"header":{"parameterUnit":"m.s-1","parameterCategory":1,"la1":30.2991,"la2":30.254,"lo1":-89.0895,"lo2":-89.0444,"dy":0.0017,"dx":0.0017,"nx":28,"ny":28,"refTime":"2025-04-15T03:00:00:Z","depth":0,"parameterNumber":3,"parameterNumberName":"V-component_of_WINDS"},"data":[0,0,0,0,0,0,0,0,0,0,0,0,0,0,0,0,0,0,0,0,0,0,0,0,0,0,0,0,0,0,0,0,0,0,0,0,0,0,0,0,0,0,0,0,0,0,0,0,0,0,0,0,0,0,0,0,0,0,-4.7034,-4.7034,0,-4.7096,-4.7097,-4.7098,-4.7012,-4.7009,-4.7006,-4.7003,-4.7063,-4.7067,-4.7072,0,0,0,0,0,0,0,0,0,0,0,0,0,-4.6835,-4.684,-4.7034,-4.7034,-4.7035,-4.7096,-4.7097,-4.7098,-4.7012,-4.7008,-4.7005,-4.7001,-4.7062,-4.7067,-4.7072,0,0,0,0,0,0,0,0,0,0,0,0,0,-4.6912,-4.6841,-4.7033,-4.7,-4.6997,-4.7096,-4.7097,-4.7098,-4.7013,-4.7008,-4.7004,-4.7,-4.706,-4.7066,-4.7073,-4.7206,0,0,-4.7093,-4.7096,0,0,0,0,0,0,0,0,-4.6908,-4.6919,-4.7004,-4.7002,-4.7,-4.7042,-4.7049,-4.7134,-4.7014,-4.7007,-4.7003,-4.6997,-4.7059,-4.7066,-4.7088,-4.7209,-4.7212,-4.7094,-4.7098,-4.7101,-4.7103,0,0,0,0,0,0,0,-4.6903,-4.6916,-4.7058,-4.7005,-4.7003,-4.698,-4.6986,-4.7065,-4.7058,-4.7007,-4.7001,-4.701,-4.7057,-4.7081,-4.7088,-4.7213,-4.7094,-4.71,-4.7104,-4.7107,-4.7448,-4.7453,0,0,0,0,0,0,-4.6902,-4.6912,-4.7056,-4.706,-4.6942,-4.6988,-4.6994,-4.7033,-4.7057,-4.7056,-4.7014,-4.7006,-4.7072,-4.7081,-4.709,-4.7249,-4.7101,-4.7107,-4.7111,-4.7443,-4.7449,-4.7454,0,0,0,0,0,0,-4.6898,-4.6916,-4.7054,-4.6985,-4.7001,-4.6996,-4.704,-4.7036,-4.706,-4.7062,-4.706,-4.704,-4.7069,-4.7081,-4.7179,-4.725,-4.711,-4.7116,-4.7437,-4.7445,-4.7452,-4.7567,0,0,0,0,0,0,-4.6893,-4.6915,-4.6966,-4.6987,-4.7005,-4.7143,-4.7044,-4.7041,-4.7073,-4.7063,-4.7086,-4.7085,-4.7066,-4.7169,-4.7185,-4.7257,-4.7122,-4.743,-4.744,-4.7449,-4.7557,-4.7578,-4.7596,0,0,0,0,0,-4.6886,-4.6995,-4.6969,-4.6987,-4.7069,-4.7147,-4.7157,-4.7134,-4.7079,-4.713,-4.7131,-4.7085,-4.7239,-4.718,-4.7197,-4.7272,-4.7426,-4.7437,-4.7448,-4.7549,-4.7574,-4.7595,0,0,0,0,0,0,-4.6982,-4.6997,-4.6969,-4.7088,-4.7117,-4.7132,-4.7196,-4.7161,-4.7205,-4.7194,-4.7162,-4.7168,-4.7273,-4.7282,-4.7215,-4.7402,-4.7323,-4.7339,-4.7393,-4.7417,-4.7436,-4.7433,-4.7127,0,0,0,0,0,-4.7017,-4.708,-4.709,-4.7194,-4.721,-4.7201,-4.7234,-4.7214,-4.7242,-4.7253,-4.7261,-4.7289,-4.7344,-4.7381,-4.7431,-4.7558,-4.7562,-4.7617,-4.7637,-4.7652,-4.7666,-4.7735,-4.776,-4.7492,-4.7491,-4.7491,0,0,-4.709,-4.7106,-4.7148,-4.7214,-4.7234,-4.7299,-4.7212,-4.7284,-4.7332,-4.7264,-4.7358,-4.7365,-4.7393,-4.7507,-4.7557,-4.7517,-4.7741,-4.7667,-4.768,-4.7685,-4.7749,-4.7774,-4.7797,-4.7499,-4.7498,-4.7497,0,0,-4.7257,-4.7275,-4.7365,-4.7388,-4.742,-4.7413,-4.7435,-4.7456,-4.7458,-4.7552,-4.7503,-4.7558,-4.7653,-4.7676,-4.77,-4.7877,-4.7836,-4.7894,-4.7995,-4.8062,-4.8083,-4.8102,-4.8166,-4.8189,-4.7908,-4.7908,-4.7908,0,-4.7343,-4.7441,-4.7415,-4.7492,-4.7523,-4.7465,-4.7555,-4.7578,-4.7624,-4.7646,-4.7601,-4.772,-4.7735,-4.7854,-4.7897,-4.7918,-4.7942,-4.7892,-4.8083,-4.8101,-4.8118,-4.8179,-4.8203,-4.7915,-4.7914,-4.7913,-4.7913,0,-4.7546,-4.7615,-4.7683,-4.7732,-4.777,-4.7853,-4.7839,-4.788,-4.7856,-4.7854,-4.7951,-4.7967,-4.8021,-4.8047,-4.8023,-4.8162,-4.8137,-4.8088,-4.8008,-4.8151,-4.8207,-4.823,-4.7925,-4.7922,-4.792,-4.7919,0,0,-4.7775,-4.781,-4.7835,-4.7857,-4.7889,-4.7941,-4.8021,-4.8075,-4.8111,-4.8145,-4.8211,-4.8293,-4.8249,-4.8276,-4.8255,-4.8314,-4.8454,-4.8257,-4.8258,-4.8295,-4.8609,-4.8646,-4.8674,-4.8427,-4.8431,-4.8434,-4.8607,0,-4.7943,-4.8084,-4.8064,-4.8199,-4.8262,-4.8209,-4.8278,-4.8305,-4.8305,-4.8358,-4.8356,-4.8416,-4.8352,-4.8369,-4.8424,-4.8425,-4.8517,-4.8412,-4.8488,-4.8491,-4.8484,-4.8703,-4.8743,-4.8905,-4.8628,-4.8632,-4.8635,0,-4.8158,-4.8202,-4.8345,-4.8368,-4.8393,-4.8457,-4.8505,-4.8556,-4.8584,-4.858,-4.8612,-4.858,-4.866,-4.8578,-4.8687,-4.8616,-4.8645,-4.8651,-4.8656,-4.8664,-4.8573,-4.8717,-4.8956,-4.8981,-4.8669,-4.8666,-4.8664,0,-4.8313,-4.8407,-4.8505,-4.8525,-4.8554,-4.86,-4.8614,-4.8638,-4.8672,-4.8713,-4.8735,-4.8784,-4.8812,-4.885,-4.8833,-4.8774,-4.8945,-4.8861,-4.8944,-4.8945,-4.8983,-4.8981,-4.9231,-4.9,-4.9,-4.9,-4.8999,0,-4.8503,-4.8592,-4.8575,-4.8636,-4.8734,-4.8709,-4.8807,-4.8813,-4.8836,-4.8896,-4.8851,-4.8908,-4.8881,-4.8935,-4.8922,-4.9014,-4.9026,-4.9025,-4.9021,-4.903,-4.9031,-4.905,-4.9039,-4.9006,-4.9005,-4.9003,-4.9002,0,-4.8693,-4.8685,-4.8788,-4.8808,-4.8814,-4.8886,-4.8902,-4.8958,-4.8955,-4.9032,-4.9048,-4.9043,-4.9105,-4.9091,-4.9158,-4.9149,-4.9266,-4.9247,-4.9258,-4.9253,-4.9337,-4.933,-4.9609,-4.9645,-4.939,-4.9393,-4.9395,0,-4.8815,-4.8884,-4.8911,-4.8949,-4.8967,-4.9028,-4.9063,-4.9041,-4.9079,-4.9117,-4.9169,-4.9227,-4.9273,-4.9375,-4.9376,-4.9428,-4.941,-4.9504,-4.9417,-4.9425,-4.9413,-4.941,-4.9417,-4.9522,-4.9525,-4.9527,-4.9529,0,-4.9035,-4.9028,-4.9081,-4.9134,-4.9177,-4.9217,-4.9252,-4.9285,-4.9265,-4.931,-4.9374,-4.941,-4.948,-4.9539,-4.9587,-4.9599,-4.9562,-4.9556,-4.9578,-4.9589,-4.9593,-4.9594,-4.9306,-4.955,-4.9548,-4.9547,-4.9545,-4.9545,-4.9195,-4.9254,-4.9283,-4.9344,-4.9368,-4.9403,-4.9457,-4.9461,-4.9515,-4.9572,-4.9554,-4.9628,-4.9654,-4.9715,-4.9733,-4.979,-4.9754,-4.9786,-4.9794,-4.9802,-4.9814,-4.9584,-4.9798,-4.9797,-4.9797,-4.9796,-4.9796,0,-4.9413,-4.943,-4.9486,-4.9538,-4.9586,-4.9547,-4.9584,-4.9627,-4.9693,-4.9722,-4.9768,-4.9842,-4.9899,-4.9906,-4.9959,-5.0003,-4.9987,-5.0018,-5.0015,-5.0019,-4.9842,-4.9818,-5.003,-5.003,-5.003,-5.003,-5.003,-5.003,-4.9532,-4.963,-4.9627,-4.9736,-4.975,-4.9824,-4.9849,-4.988,-4.9903,-4.9988,-5.0036,-5.004,-5.006,-5.0115,-5.0166,-5.0166,-5.0188,-5.0226,-5.022,-5.0054,-5.0031,-5.0009,-4.9987,-5.0231,-5.0231,-5.0392,-5.0394,-5.0395]}]]